Location: Bagnara
(41.0500°N, 14.7833°E)
Time: 20:49:18
(UTC+00:00)

ATLAS 5 CENTAUR R/B - Pass Details

Date: 22 October 2021
Orbit: 497 x 1159 km, 63.4° (Epoch: 25 November)

Event Time Altitude Azimuth Distance (km) Brightness Sun altitude
Rises 16:42:47 0° 228° (SW) 2,579 5.8 -6.9°
Reaches altitude 10° 16:44:55 10° 235° (SW) 1,721 5.0 -7.3°
Maximum altitude 16:48:35 46° 310° (NW) 725 2.3 -8.0°
Drops below altitude 10° 16:52:40 10° 25° (NNE) 1,922 3.8 -8.8°
Sets 16:55:10 0° 31° (NNE) 2,923 4.7 -9.2°
